Regional Weather Roundup
Issued by NWS

Home | Current Version | Previous Version | Graphics & Text | Print | Product List | Glossary On
Versions: 1 2 3 4 5 6 7 8 9 10 11 12 13 14 15 16 17 18 19 20 21 22 23 24 25 26 27 28 29 30 31 32 33 34 35 36 37 38 39 40 41 42 43 44 45 46 47 48 49 50
000
ASUS43 KBIS 282210
RWRND

NORTH DAKOTA REGIONAL WEATHER ROUNDUP
NATIONAL WEATHER SERVICE BISMARCK ND
500 PM CDT WED SEP 28 2016

NOTE: "FAIR" INDICATES FEW OR NO CLOUDS BELOW 12,000 FEET WITH NO
SIGNIFICANT WEATHER AND/OR OBSTRUCTIONS TO VISIBILITY.


NDZ001>003-009>011-017-282300-
NORTHWEST NORTH DAKOTA

CITY           SKY/WX    TMP DP  RH WIND       PRES   REMARKS
WILLISTON      SUNNY     76  52  43 SE8       30.23F
MINOT          SUNNY     70  35  27 E10       30.29F
MINOT AFB      SUNNY     69  38  32 E12       30.28S
$$

NDZ018>021-031>035-040>046-282300-
SOUTHWEST NORTH DAKOTA

CITY           SKY/WX    TMP DP  RH WIND       PRES   REMARKS
BISMARCK       SUNNY     69  36  29 E5        30.29S
DICKINSON      SUNNY     74  45  35 SE13      30.25R
GARRISON         N/A     70  36  28 SE9       30.28F
HETTINGER ARPT SUNNY     76  45  33 SE12      30.27S
$$

NDZ004>008-012>016-024-026-027-054-282300-
NORTHEAST NORTH DAKOTA

CITY           SKY/WX    TMP DP  RH WIND       PRES   REMARKS
GRAND FORKS    MOSUNNY   62  46  55 CALM      30.34R
DEVILS LAKE    SUNNY     59  46  62 CALM      30.34S
$$

NDZ022-023-025-028>030-036>039-047>053-282300-
SOUTHEAST NORTH DAKOTA

CITY           SKY/WX    TMP DP  RH WIND       PRES   REMARKS
FARGO          PTSUNNY   66  46  48 NE8       30.31R
JAMESTOWN      SUNNY     63  44  50 E6        30.31S
$$





USA.gov is the U.S. government's official web portal to all federal, state and local government web resources and services.